Regional Weather Roundup
Issued by NWS

Home | Current Version | Previous Version | Graphics & Text | Print | Product List | Glossary On
Versions: 1 2 3 4 5 6 7 8 9 10 11 12 13 14 15 16 17 18 19 20 21 22 23 24 25 26 27 28 29 30 31 32 33 34 35 36 37 38 39 40 41 42 43 44 45 46 47 48 49 50
000
ASUS45 KBOI 202210
RWRID
WEATHER ROUNDUP FOR IDAHO
NATIONAL WEATHER SERVICE BOISE ID
400 PM MDT SAT SEP 20 2014

NOTE: "FAIR" INDICATES FEW OR NO CLOUDS BELOW 12000 FEET
WITH NO SIGNIFICANT WEATHER AND/OR OBSTRUCTIONS TO VISIBILITY

IDZ012-014-202300-
SOUTHWEST IDAHO


CITY           SKY/WX    TMP DP  RH WIND       PRES   REMARKS
BOISE          SUNNY     84  43  23 CALM      30.05F
CALDWELL       SUNNY     82  48  30 E5        30.06F
MOUNTAIN HOME  SUNNY     83  44  25 S8        30.06F
$$

IDZ016-017-202300-
SOUTHCENTRAL IDAHO


CITY           SKY/WX    TMP DP  RH WIND       PRES   REMARKS
BURLEY         SUNNY     80  39  23 E6        30.12F
JEROME         SUNNY     83  45  26 VRB5      30.12F
TWIN FALLS     SUNNY     82  44  26 NE7       30.12F
$$

IDZ019>023-202300-
SOUTHEAST IDAHO


CITY           SKY/WX    TMP DP  RH WIND       PRES   REMARKS
IDAHO FALLS    SUNNY     81  42  25 VRB3      30.19F
POCATELLO      SUNNY     82  43  25 NW8       30.16F
REXBURG        SUNNY     77  39  25 CALM      30.20F
$$

IDZ006-010-011-018-031-032-202300-
CENTRAL IDAHO MOUNTAINS


CITY           SKY/WX    TMP DP  RH WIND       PRES   REMARKS
MCCALL         SUNNY     77  39  25 S5        30.16F
HAILEY         MOSUNNY   79  46  31 SE8       30.21F
STANLEY          N/A     79  36  21 VRB5      30.24F
SALMON         SUNNY     77  39  25 CALM      30.12F
CHALLIS        SUNNY     81  41  24 N7        30.16F
$$

IDZ002-004-006-007-026-202300-
NORTHERN IDAHO


CITY           SKY/WX    TMP DP  RH WIND       PRES   REMARKS
LEWISTON       SUNNY     86  46  24 W6        30.03F
LOWELL           N/A     85  54  34 NW3       30.00F
COEUR D`ALENE  SUNNY     81  48  32 NE10G16   30.11F
MULLAN PASS    SUNNY     67  37  33 VRB3      30.30F
$$



USA.gov is the U.S. government's official web portal to all federal, state and local government web resources and services.